Wind_Speed
24 22 22 23 21 18 20 22 21 22 24 23 25 27 27 26 24 22 20 18 15 13 11 10 9 8 7 7 7 7 6 7 9 10 11 11 12 12 11 10 9 9 8 7 7 7 7 7 7 7 8 8 8 8 8 7 7 7 7 7 6 6 4 3 5 6 5 3 2 5 6 6 7 7 6 7 7 6 6 7 7 7 8 8 9
22 22 23 24 21 18 20 22 23 24 25 25 27 28 28 26 24 22 20 17 15 13 11 10 9 8 8 7 7 6 6 8 8 9 10 11 12 11 10 9 9 9 9 8 8 8 7 7 7 8 8 8 8 8 8 8 8 7 7 7 7 6 5 5 5 5 4 3 3 5 6 6 6 7 6 6 6 5 6 6 7 7 8 8 9
21 22 22 24 22 20 22 24 25 26 27 27 29 30 30 28 24 22 20 18 16 13 11 10 9 8 8 8 7 6 7 7 7 8 11 11 10 10 10 10 10 9 8 8 7 7 6 7 7 8 8 7 8 9 9 9 10 8 8 8 8 8 7 5 5 4 4 4 2 3 5 6 6 7 7 6 5 5 5 5 6 7 7 8 10
21 20 20 21 20 20 22 25 26 28 28 28 30 30 30 28 25 23 22 19 16 13 11 10 10 9 9 8 7 7 7 7 7 10 10 9 10 11 10 10 10 9 7 7 7 6 6 6 7 7 7 8 9 9 10 10 9 7 7 7 8 10 7 5 4 3 4 6 4 3 4 4 5 6 6 4 4 5 5 5 6 7 8 9 10
20 18 18 18 18 19 22 24 27 29 29 29 29 29 29 29 26 25 22 19 16 13 12 11 10 10 10 9 8 7 7 7 8 9 9 9 11 12 10 10 9 8 7 7 7 6 6 7 6 6 7 9 10 11 10 9 7 6 5 4 6 8 7 5 3 2 5 8 7 5 6 6 5 5 5 5 5 6 7 7 8 9 10 11 11
20 19 19 19 17 19 24 26 28 30 29 29 28 27 29 29 27 25 23 19 16 14 13 12 11 10 10 9 8 8 8 8 9 9 9 10 12 11 9 10 9 8 7 7 7 8 8 7 7 7 8 10 11 11 9 7 6 7 7 6 6 7 7 6 4 5 6 9 10 8 6 8 9 7 7 8 8 8 9 10 11 12 13 13 14
20 19 20 19 18 22 26 28 30 31 30 29 28 28 30 30 28 26 23 19 17 15 13 11 10 10 9 9 9 8 8 9 9 10 10 10 10 10 10 11 11 10 8 8 8 9 8 8 8 8 8 9 9 8 6 5 5 6 8 7 7 7 8 7 7 8 8 9 10 10 9 10 11 11 10 10 10 10 9 10 12 13 15 16 16
18 20 22 20 20 25 29 28 30 32 30 29 29 30 31 30 28 27 23 20 19 16 13 11 10 9 8 8 8 8 8 8 9 9 9 9 9 11 11 11 11 10 10 9 9 8 8 7 7 7 6 7 7 6 5 4 5 5 5 5 6 7 7 7 9 10 11 11 12 13 12 12 14 15 14 14 14 13 12 12 12 13 14 15 16
17 19 22 19 19 26 30 29 30 31 30 29 29 29 30 30 29 28 24 22 20 17 15 14 12 9 8 8 8 8 8 8 8 9 9 9 9 11 11 11 10 10 10 9 9 8 8 8 7 7 6 6 7 7 6 6 6 6 6 6 6 6 7 8 9 10 12 12 14 15 14 14 16 17 18 18 17 17 18 18 17 16 16 17 17
16 16 20 18 18 24 28 29 31 30 29 31 30 28 29 31 31 29 26 24 23 20 19 17 14 11 9 10 10 8 8 8 9 9 9 9 10 10 11 11 10 9 9 9 9 9 9 8 8 8 8 8 8 9 8 8 7 7 8 8 8 8 10 11 11 12 12 13 14 16 16 16 17 17 19 20 20 20 21 22 22 21 21 22 21
15 15 17 17 20 25 27 28 31 30 30 33 33 30 29 31 32 31 29 27 25 22 20 19 16 12 12 13 11 10 9 9 10 9 10 10 10 10 11 11 12 11 10 9 10 10 10 10 11 11 11 10 9 9 10 10 10 10 11 11 11 12 13 14 15 15 15 15 16 17 18 18 18 18 18 20 21 21 22 23 23 22 24 27 26
11 12 13 15 20 24 24 25 29 30 30 32 34 33 31 31 32 32 30 27 24 22 21 19 17 14 14 14 13 12 11 11 11 11 12 12 11 11 12 12 12 12 12 11 11 11 11 11 12 12 12 11 11 10 10 11 11 12 12 13 13 13 14 15 16 17 17 17 18 19 20 21 21 22 22 22 22 22 23 25 24 23 24 27 27
7 9 12 15 18 20 21 24 27 28 28 31 35 34 32 32 33 32 29 26 23 21 21 19 18 17 16 16 15 15 14 13 13 14 14 14 14 14 14 13 13 12 11 11 11 11 11 11 12 12 12 13 13 11 11 11 12 13 14 14 14 14 15 16 17 18 19 19 20 21 22 23 23 24 25 25 26 26 26 27 27 26 26 26 26
7 7 10 14 17 20 22 24 26 27 27 29 33 34 33 34 34 33 31 27 24 22 20 20 20 19 18 18 17 17 16 16 16 16 16 17 17 17 17 16 14 12 11 10 11 12 13 13 12 13 13 15 16 15 15 14 15 16 16 16 16 17 17 17 18 18 19 20 21 21 22 24 24 24 26 27 28 29 30 30 29 28 28 28 28
6 6 9 14 18 21 23 23 24 25 26 27 29 32 33 33 33 34 33 30 27 25 23 22 22 21 20 20 19 18 17 17 18 18 19 19 19 19 19 18 17 16 14 14 13 12 13 14 14 14 15 17 18 18 17 17 16 17 16 16 16 16 17 19 20 21 21 22 22 22 24 25 25 26 27 27 30 32 34 33 31 29 29 30 31
4 4 7 13 18 20 21 22 23 24 25 26 28 31 31 29 29 31 32 31 29 27 25 24 24 22 21 21 20 19 17 17 18 19 20 21 21 21 22 22 21 20 18 17 17 17 16 16 17 17 17 18 19 17 16 15 15 16 16 17 17 17 19 21 22 23 23 24 25 25 26 27 27 28 29 29 31 34 35 34 32 29 30 32 32
3 2 6 15 22 20 17 19 22 24 25 24 25 27 28 28 28 29 30 29 28 28 27 26 25 24 23 22 21 21 21 20 19 20 22 23 23 24 25 26 25 23 20 18 19 20 22 22 21 19 17 18 20 19 16 15 16 17 17 19 20 21 22 24 25 26 26 27 28 28 28 28 29 29 30 30 30 31 31 31 30 30 31 33 33
4 4 8 16 21 20 18 18 20 21 23 24 24 22 22 24 27 29 31 30 30 31 31 30 29 28 27 27 26 26 26 25 23 22 23 24 25 26 27 28 28 27 25 24 24 25 26 26 23 19 18 19 21 21 20 18 18 19 21 22 24 25 26 26 27 28 29 29 28 28 28 27 27 27 27 27 27 28 29 30 30 31 32 32 32
3 4 7 11 16 19 19 18 18 18 20 22 22 20 17 17 18 22 26 28 29 29 29 29 29 29 29 29 29 28 27 27 25 24 25 26 26 27 28 29 30 31 31 31 30 27 23 22 21 19 20 21 22 23 23 22 23 25 26 28 28 28 27 26 25 26 26 26 25 25 25 25 25 25 25 25 26 27 29 30 31 31 32 32 32
3 3 3 6 10 14 15 16 17 17 16 16 17 17 15 13 12 13 14 17 18 18 18 18 19 20 21 22 22 22 21 22 22 22 24 26 27 28 30 31 30 29 28 27 24 21 19 20 20 20 21 22 23 24 25 26 27 28 28 28 27 26 24 23 22 22 22 23 24 25 25 26 27 27 27 27 28 28 29 31 32 33 34 35 36
3 3 5 6 7 11 14 14 15 15 14 14 14 14 14 13 12 11 11 12 13 12 12 13 12 12 12 13 13 13 12 11 12 13 15 18 21 23 24 23 20 18 16 15 14 14 16 18 20 21 23 24 25 26 27 27 28 28 27 26 25 25 25 24 24 24 25 25 27 28 28 29 30 31 32 32 32 32 32 33 34 34 36 37 39
7 8 10 11 10 10 12 13 13 13 13 13 13 13 12 12 13 13 12 12 12 12 12 12 11 11 11 11 11 10 8 7 8 9 10 11 12 12 12 12 12 12 12 12 12 14 17 19 22 24 25 26 27 27 27 26 26 26 26 26 26 26 27 28 29 29 30 30 31 31 32 32 33 35 36 37 37 36 37 37 36 36 36 38 40
12 13 14 14 13 11 11 12 12 13 13 13 13 15 15 16 17 17 14 13 12 11 10 11 12 12 11 10 10 8 7 7 7 8 9 10 10 10 10 12 13 14 14 14 15 17 20 22 23 24 25 25 25 25 25 26 26 27 28 28 28 29 30 31 32 33 33 34 35 35 36 36 37 37 38 39 40 40 40 40 39 39 38 38 39
17 16 17 17 15 13 12 12 12 12 12 11 11 12 13 14 16 17 16 14 13 11 11 11 12 12 11 10 9 8 7 8 8 9 9 10 10 12 13 14 15 15 16 17 17 18 20 21 22 23 23 24 24 25 27 28 28 29 30 31 32 33 34 35 35 35 36 36 37 37 38 38 38 38 38 39 39 40 41 41 41 42 42 41 40
17 16 17 16 16 15 15 14 13 12 11 10 10 9 9 9 10 10 11 11 10 10 11 12 13 12 10 9 8 8 9 10 10 11 12 12 14 15 15 16 16 17 17 18 19 20 21 21 22 23 24 25 27 28 29 30 31 32 32 33 34 35 35 35 35 35 34 34 34 34 34 34 34 34 34 35 35 36 36 37 38 39 40 41 41
17 17 17 17 17 17 17 16 14 13 12 12 11 9 9 9 9 8 8 9 9 10 12 13 13 12 11 10 9 10 11 12 13 14 15 15 16 16 16 16 17 18 19 20 20 21 22 23 25 26 27 28 29 30 31 31 31 31 31 31 31 31 31 31 30 30 30 30 30 31 31 30 30 30 31 31 32 32 33 33 33 34 36 37 38
23 22 21 20 20 20 20 19 18 17 16 14 13 12 11 10 10 10 10 10 11 13 14 15 14 14 13 12 12 13 14 15 15 16 16 16 16 16 17 18 19 20 20 21 22 23 24 26 27 28 28 29 29 28 28 28 27 26 25 25 26 26 26 26 26 25 25 25 26 26 27 28 28 27 28 28 29 30 30 31 32 33 34 36 37
20 23 23 23 22 22 21 20 19 18 17 16 15 13 12 12 12 12 12 12 12 13 13 13 13 13 12 12 12 13 14 15 16 16 16 17 17 18 19 19 20 20 21 22 23 23 24 24 25 25 24 24 23 23 22 21 21 21 21 22 22 22 21 21 20 20 20 21 21 22 23 23 24 25 25 26 26 27 28 29 30 32 32 33 34
11 14 16 18 18 17 16 15 15 14 13 12 10 9 9 10 12 13 13 13 13 13 13 13 14 14 14 14 14 15 15 16 16 16 17 18 18 19 19 19 19 19 19 20 20 20 20 19 19 18 18 18 18 18 18 18 18 19 19 19 18 17 16 17 17 18 19 20 21 22 22 23 24 24 25 25 26 27 27 28 29 30 31 31 32
10 9 9 10 10 10 9 8 8 7 6 6 5 6 7 8 9 11 12 12 13 13 14 15 16 17 17 18 18 18 18 18 17 17 17 17 18 18 17 16 16 16 16 16 16 15 14 14 14 14 14 15 16 16 16 15 15 16 16 17 16 16 16 17 18 19 20 21 22 22 23 23 24 24 24 24 25 25 26 27 27 28 29 29 30
7 5 4 3 3 2 2 2 3 4 4 5 6 7 8 9 10 11 12 14 14 15 16 18 18 19 20 20 20 19 18 18 17 16 15 15 15 15 14 14 14 14 14 14 13 13 13 13 12 13 13 13 13 13 12 12 13 14 16 17 17 18 18 19 19 20 20 21 22 23 23 23 23 23 23 22 22 23 23 24 25 25 25 25 26
2 1 1 1 2 3 3 4 6 7 8 9 10 11 12 13 14 15 16 17 18 18 19 20 20 20 20 19 18 17 16 15 14 13 12 12 11 11 12 12 12 12 12 12 12 12 12 11 10 10 11 10 10 10 11 13 14 16 17 18 19 21 22 23 22 21 21 22 22 23 23 23 23 22 21 21 20 20 20 21 21 20 20 20 20
4 5 5 5 5 6 7 8 9 10 11 12 13 14 15 15 16 17 17 18 18 18 18 18 18 17 17 16 14 13 13 12 12 11 10 9 9 9 10 10 10 10 9 9 9 10 9 8 8 8 9 10 11 12 14 15 17 18 19 20 22 23 24 25 24 22 21 22 22 22 22 22 22 21 20 19 18 18 18 18 17 16 17 17 16
6 6 6 6 7 8 9 10 10 10 11 12 13 14 14 14 15 16 16 17 17 17 17 16 16 15 14 13 12 11 11 11 10 9 8 8 8 8 8 8 8 7 5 4 6 7 6 7 8 9 10 12 14 15 16 18 19 20 20 21 22 23 23 23 23 22 22 22 21 21 20 20 20 19 18 17 17 17 17 17 17 17 19 19 19
7 7 6 5 7 8 9 9 10 9 10 11 12 12 13 13 13 14 15 15 15 15 14 14 13 12 11 11 11 11 11 10 8 8 7 7 7 7 7 6 5 4 2 2 4 5 6 8 9 11 12 14 15 16 17 18 19 20 20 20 20 20 20 21 21 21 21 21 21 20 19 18 18 18 17 17 17 16 16 16 17 19 20 20 20
7 7 6 5 6 7 8 8 9 9 9 10 10 10 11 11 11 11 12 12 13 13 13 12 11 10 10 10 11 10 9 8 7 7 7 6 5 5 4 3 2 2 2 4 5 6 7 9 10 11 13 14 15 16 17 18 19 19 20 20 20 20 20 19 20 20 20 20 19 19 18 17 17 17 17 17 17 16 16 15 15 16 17 17 17
8 8 7 4 4 6 7 7 8 8 7 8 9 9 9 10 10 10 10 11 12 13 12 10 10 10 10 10 10 9 7 7 6 6 5 4 3 3 2 2 2 3 4 5 6 7 8 9 10 12 13 14 16 17 18 19 20 20 20 20 20 20 19 19 19 19 19 19 19 19 19 18 18 18 18 17 17 16 15 15 15 15 16 17 16
8 8 7 5 4 5 7 8 7 7 7 8 8 9 9 10 11 12 12 12 13 12 10 8 9 9 10 9 8 7 6 6 5 5 5 4 4 3 2 1 2 3 4 5 6 7 9 10 11 12 14 15 16 17 18 19 19 19 19 19 19 19 18 18 19 19 19 20 20 19 19 19 19 18 17 16 16 14 13 14 15 17 18 20 20
8 8 8 6 4 4 6 8 8 8 8 7 8 9 10 11 12 12 12 12 12 9 7 7 8 9 9 8 7 6 6 6 6 5 5 4 3 1 1 0 1 2 4 5 7 8 9 11 12 13 14 15 16 17 17 18 18 18 18 18 18 19 19 18 18 18 18 19 19 18 18 17 17 16 15 15 15 13 13 14 17 19 21 22 22
8 8 7 7 5 3 5 6 7 8 8 7 8 9 9 10 11 12 13 12 11 7 6 7 8 9 9 8 7 6 6 6 6 5 4 3 2 1 1 1 2 4 5 6 7 8 10 11 12 13 14 15 15 16 16 16 17 17 17 18 18 18 19 19 19 18 18 17 17 17 16 15 15 15 15 15 14 13 12 14 17 19 20 20 20
6 6 6 6 5 3 4 6 6 7 7 7 8 9 9 9 11 13 13 13 10 8 7 8 9 10 10 8 6 6 7 7 6 5 4 4 4 3 3 3 4 4 5 6 7 9 10 11 12 13 14 15 15 15 16 16 16 16 17 17 17 18 18 18 18 17 17 16 16 16 16 15 15 14 14 15 15 14 13 13 15 17 18 18 19
6 5 5 5 3 2 3 5 5 6 6 7 8 9 8 8 10 12 13 12 11 10 9 10 10 10 9 7 7 7 7 7 6 6 6 6 5 5 4 4 3 4 5 6 8 9 10 12 13 14 15 15 15 15 15 15 16 16 17 17 17 17 17 17 16 16 15 14 14 14 14 15 14 14 14 15 15 15 14 13 14 16 16 16 16
5 5 6 6 4 2 3 4 5 5 5 6 7 8 9 9 10 12 13 12 11 10 10 10 10 9 8 7 7 7 7 7 8 8 8 7 6 5 4 3 3 4 5 6 8 9 10 12 13 14 15 16 16 16 15 15 15 16 17 17 18 18 17 16 15 15 14 13 13 12 13 13 14 13 13 13 13 13 12 12 12 13 14 14 14
5 5 6 8 7 3 2 3 4 4 4 5 5 7 9 9 9 10 11 11 10 10 10 10 10 10 9 8 7 6 8 10 10 10 9 8 7 5 4 3 3 4 5 6 7 9 10 12 13 15 15 16 16 16 16 15 15 15 16 17 18 18 17 15 14 13 13 13 12 12 11 12 12 12 11 11 11 11 10 10 11 12 12 12 12
6 6 6 7 8 5 3 3 4 5 4 5 6 6 7 7 7 7 9 10 9 9 10 11 11 11 10 9 8 9 11 12 11 11 10 8 6 4 2 2 2 3 4 6 7 9 10 12 13 14 15 16 16 16 16 15 15 15 16 16 17 17 17 16 14 13 13 12 12 12 11 11 11 11 10 10 10 10 10 10 10 11 11 11 10
7 7 6 5 6 7 5 4 5 5 4 4 6 7 7 7 7 7 7 8 9 9 10 11 11 11 10 9 10 12 13 13 12 11 9 6 4 3 2 1 2 3 4 5 6 8 10 11 13 14 15 16 16 17 16 16 15 15 15 15 16 17 17 16 15 14 14 13 12 12 12 11 11 11 10 10 10 10 10 10 10 10 11 10 10
7 8 7 4 3 5 6 5 5 5 5 4 4 4 4 5 7 8 7 7 8 9 11 12 12 11 10 10 11 13 13 12 11 9 7 5 4 2 1 0 1 2 3 5 6 7 9 11 12 13 15 16 16 17 17 17 16 16 15 15 15 15 16 16 15 15 14 14 13 13 13 13 12 12 11 11 10 11 11 11 10 10 10 10 10
7 8 9 7 4 4 5 5 5 7 7 7 5 4 2 2 4 6 6 6 7 8 10 12 12 12 11 11 13 13 12 11 9 8 6 5 4 3 2 1 1 2 3 4 5 7 8 10 11 12 14 15 16 17 17 17 17 17 16 15 15 15 14 14 14 14 13 13 13 14 14 14 14 13 12 11 11 11 11 11 11 11 11 10 10
8 8 10 9 6 3 4 6 6 7 8 7 7 6 5 3 3 4 5 5 5 6 9 11 12 13 13 13 13 13 11 10 9 8 6 5 4 4 3 2 1 1 2 3 5 6 7 9 10 12 13 14 15 16 17 17 17 17 16 16 15 15 14 14 13 13 13 13 13 13 13 14 14 13 13 12 11 10 10 10 11 11 11 11 11
9 9 10 10 7 5 6 6 6 6 8 7 8 9 10 8 7 7 6 5 4 5 8 9 11 13 14 14 13 12 11 10 9 8 7 6 6 5 4 2 1 1 2 3 4 6 7 8 9 11 12 13 14 15 16 17 17 17 16 16 15 15 14 14 14 13 13 13 13 13 12 13 13 13 12 12 11 11 10 10 10 10 11 11 11
11 11 10 9 7 7 7 6 5 5 8 9 9 11 12 12 9 7 7 8 7 7 8 10 10 12 14 14 13 13 11 10 9 9 8 7 6 5 4 3 2 1 1 2 4 5 6 8 9 10 11 13 14 15 15 16 16 17 17 16 16 15 14 14 14 13 13 13 13 12 12 12 12 12 12 12 12 12 11 11 10 11 11 11 11
Wind_Direction
229 235 238 236 230 222 216 210 201 197 199 200 199 201 201 197 192 188 185 183 181 181 179 174 178 189 193 198 210 216 212 208 212 211 204 205 210 211 208 206 205 206 206 203 202 201 193 182 173 167 164 165 175 189 193 195 200 201 203 209 219 225 214 232 275 298 309 313 255 236 229 225 232 232 233 242 240 239 242 238 231 222 211 208 208
225 232 233 231 227 222 216 212 205 200 200 202 202 202 201 196 191 188 185 183 181 182 181 177 180 187 188 197 210 208 200 202 209 205 199 202 209 207 203 201 197 193 191 191 197 198 186 174 167 159 157 162 174 182 178 181 191 192 190 195 206 216 212 218 247 273 287 288 245 224 210 200 224 236 232 236 237 231 231 233 232 227 220 217 218
228 234 233 226 220 213 210 212 210 203 201 203 203 202 201 195 189 188 187 185 187 188 185 180 180 183 187 196 203 197 196 202 200 195 198 201 202 199 194 191 189 184 182 182 184 183 170 168 170 161 158 165 169 170 174 185 192 185 182 194 208 217 221 224 231 246 277 290 273 234 209 181 203 235 233 226 235 240 238 238 239 240 239 234 232
226 236 240 230 221 212 209 214 214 205 200 202 202 202 200 192 188 188 187 187 192 193 187 182 181 186 190 192 193 194 197 194 185 193 201 194 190 197 193 186 184 178 173 176 175 169 161 166 173 167 163 165 166 174 189 200 201 186 177 187 205 219 232 234 224 244 291 296 284 263 256 209 201 234 249 240 240 251 254 254 251 250 250 249 248
226 232 238 233 228 220 214 216 216 206 198 200 202 199 196 190 187 188 189 191 195 194 188 182 179 184 191 192 189 193 196 191 189 198 198 184 189 199 193 182 181 172 164 170 168 160 158 162 168 166 163 165 172 184 197 204 202 190 184 188 196 212 232 238 229 259 290 291 283 273 280 281 260 253 266 266 261 261 263 262 260 258 256 256 259
231 232 234 233 230 220 213 213 213 204 198 200 201 195 192 191 189 189 191 193 193 193 190 182 177 181 188 190 187 191 196 193 194 200 193 186 190 195 190 182 178 171 167 167 158 152 155 159 163 164 163 168 180 193 198 197 194 190 198 210 203 211 235 251 256 261 267 275 276 269 276 288 287 283 279 275 269 266 268 270 269 266 265 264 265
235 235 232 228 222 213 205 205 207 201 197 199 198 193 192 193 191 190 193 194 192 191 188 180 179 182 186 189 189 193 199 196 198 201 196 191 184 179 182 184 180 177 174 166 154 149 153 157 159 162 162 167 183 197 198 199 201 192 192 203 210 220 238 251 256 260 263 268 272 278 289 292 289 288 286 281 275 268 269 272 270 267 265 263 262
239 236 230 220 215 209 201 200 202 198 195 197 196 195 196 195 192 192 194 196 194 191 185 181 185 187 186 193 195 195 198 199 202 203 199 193 180 170 178 187 186 184 180 171 161 155 156 159 161 165 161 161 176 194 198 202 211 209 205 212 216 218 231 250 261 269 277 282 284 289 294 290 284 284 285 284 284 283 280 273 264 262 263 261 258
241 234 232 223 211 206 200 200 202 196 193 196 197 197 198 196 194 194 195 198 198 195 191 195 205 206 198 205 207 197 195 198 203 204 200 195 185 174 176 183 188 188 182 174 168 163 162 161 162 166 163 163 176 187 194 206 216 221 229 235 234 229 235 249 259 266 274 278 280 282 283 280 277 279 283 284 285 284 282 279 276 273 271 268 264
236 230 234 229 211 203 198 200 202 195 190 194 196 198 199 196 195 196 196 199 201 199 198 208 224 224 207 208 210 199 193 198 202 203 200 198 195 186 181 181 183 185 184 176 167 165 166 165 166 172 178 183 189 192 198 212 227 236 242 249 255 257 257 257 257 258 259 261 264 268 271 273 272 274 279 282 284 284 283 284 285 284 281 280 277
234 234 238 232 213 201 198 199 201 198 196 196 195 198 200 198 197 197 198 201 203 203 206 218 230 226 207 206 209 202 197 199 202 204 204 204 203 198 195 193 189 188 191 188 179 175 177 179 183 190 196 200 205 210 216 224 235 242 247 251 255 256 260 262 262 261 261 260 263 265 267 271 273 274 275 278 282 285 285 283 283 283 283 284 283
237 233 226 217 204 196 195 199 199 198 201 200 197 199 202 201 199 199 199 202 205 209 214 221 226 221 211 208 207 203 202 203 205 206 206 208 209 207 206 207 205 200 199 201 200 197 199 203 209 213 216 220 221 225 234 242 247 250 253 257 260 260 260 261 262 262 263 263 264 266 268 269 271 272 273 274 276 278 279 279 279 279 281 282 281
245 226 203 195 191 187 191 199 198 197 200 201 198 200 204 204 203 201 200 202 208 213 218 222 222 219 215 212 208 206 207 209 210 209 208 208 209 209 209 212 216 214 211 216 223 223 223 226 230 235 241 244 242 238 241 248 252 254 257 259 263 265 265 265 265 265 266 267 267 268 270 270 271 271 272 273 274 274 272 272 272 272 273 274 274
269 240 197 185 187 187 188 194 200 200 200 201 200 202 206 208 208 206 203 203 207 212 219 225 225 223 222 219 214 210 209 210 213 212 211 211 210 210 212 214 216 216 216 226 235 239 241 242 243 246 248 251 252 245 239 244 250 254 259 262 265 270 271 271 269 269 270 272 272 271 271 272 273 273 272 272 272 271 269 267 266 266 267 269 270
288 244 200 185 185 189 190 195 201 199 198 202 205 206 209 211 213 213 211 209 211 216 221 227 228 226 225 225 221 217 213 214 217 217 215 214 212 210 213 215 215 212 214 220 226 234 242 248 254 259 259 262 264 252 236 237 247 254 260 264 265 269 273 273 273 273 274 273 273 274 273 273 274 273 273 273 273 272 270 267 266 265 266 268 270
298 251 208 195 189 188 190 195 197 196 199 207 209 206 206 206 209 214 216 216 219 222 225 230 232 230 228 228 227 222 217 216 220 222 221 221 220 218 219 220 218 217 220 226 231 234 238 243 249 255 260 271 279 267 245 242 253 260 263 264 263 267 272 275 277 277 276 275 276 276 275 274 273 273 273 273 274 276 275 272 270 269 268 269 270
229 208 189 196 192 185 185 193 195 198 204 208 209 206 203 202 206 211 213 217 221 224 228 232 234 234 233 232 231 229 227 228 228 227 227 227 227 228 231 232 233 234 236 239 245 249 248 246 247 251 261 275 283 279 268 264 267 270 272 272 272 274 276 277 278 277 274 273 273 274 274 273 272 272 272 272 272 275 277 277 276 275 273 272 272
232 204 187 188 183 177 183 194 198 203 208 207 207 210 207 205 210 214 215 218 222 226 230 234 236 238 239 239 241 241 242 242 239 234 231 230 231 235 239 243 247 249 249 252 263 267 258 248 249 259 271 278 281 282 283 281 280 281 283 281 280 279 277 276 276 274 273 271 271 272 272 272 270 269 270 270 270 272 275 277 277 276 275 275 275
285 233 207 195 184 180 185 192 196 205 212 208 205 209 208 204 209 216 218 221 224 228 233 236 238 240 241 241 243 245 244 244 241 236 233 233 234 238 242 247 252 255 256 260 267 269 257 246 250 262 270 273 276 280 283 284 285 285 284 283 282 281 279 277 275 274 274 273 271 270 268 268 269 270 269 269 268 269 270 271 272 272 273 274 274
289 275 221 197 192 184 178 183 192 200 206 204 201 204 204 198 201 208 212 216 222 225 224 222 224 228 230 232 234 236 236 236 235 234 233 234 237 240 244 248 252 255 258 260 262 258 249 246 252 262 267 271 274 277 280 282 283 283 281 280 280 280 279 276 274 272 270 269 268 267 267 267 268 268 267 267 266 266 266 266 267 269 270 271 270
183 177 141 134 157 171 169 172 180 183 182 183 186 190 195 196 198 200 203 210 215 209 197 193 197 202 206 210 213 214 216 217 218 220 224 228 233 237 241 246 250 252 253 255 254 250 248 252 258 264 269 271 274 277 279 280 280 279 278 277 277 277 277 275 275 274 271 268 266 266 267 268 268 268 269 268 267 266 265 265 265 266 269 271 271
154 150 138 123 123 143 153 154 155 156 158 164 171 177 184 192 198 202 206 206 199 187 182 186 191 191 189 189 192 195 196 195 197 201 207 215 222 229 237 248 258 262 261 260 262 259 258 261 264 267 271 273 274 275 276 276 276 276 275 276 276 276 276 275 276 275 275 273 272 271 271 270 270 270 270 270 270 270 269 268 267 266 266 267 268
149 145 138 131 126 130 138 144 148 154 158 167 179 183 184 188 191 193 193 189 182 182 187 192 196 197 199 202 202 203 207 211 214 218 223 229 232 236 245 254 260 264 264 263 262 261 261 263 264 266 269 270 271 272 272 272 273 274 275 277 277 277 276 276 276 276 277 278 279 278 277 276 275 274 273 273 274 274 273 272 271 269 268 266 265
154 146 137 135 137 141 146 149 149 153 158 167 178 183 184 189 190 187 184 186 190 197 203 205 207 207 209 213 216 217 223 231 235 235 236 240 241 242 246 251 254 258 260 261 260 260 261 263 265 267 268 269 270 271 271 272 273 275 277 278 278 279 280 281 281 282 282 282 281 281 280 280 279 278 277 276 276 275 274 273 272 272 272 271 270
161 154 147 146 149 153 157 155 150 151 153 152 153 156 158 165 172 173 178 187 196 203 212 219 222 223 223 226 227 229 235 240 243 242 242 243 244 247 250 252 255 258 261 262 263 264 265 266 266 268 268 269 269 270 271 274 276 277 279 280 281 283 284 285 285 285 285 285 284 284 283 283 282 281 280 278 277 276 274 273 273 272 273 273 273
171 167 165 165 167 168 167 165 164 165 165 162 162 165 165 165 171 175 182 194 208 219 224 227 229 233 235 231 228 232 239 242 242 242 244 245 246 250 253 254 257 260 261 262 263 264 265 266 266 267 267 268 270 272 275 277 279 281 283 284 285 286 286 286 287 287 287 287 287 286 285 284 283 283 282 281 280 279 277 275 274 273 272 272 272
173 176 177 177 177 177 176 176 177 177 177 178 181 185 187 190 196 202 206 213 223 232 237 237 236 237 234 226 221 223 229 236 241 244 249 252 254 256 258 259 260 260 262 263 263 264 265 266 268 270 272 275 277 280 281 283 284 286 286 286 285 286 286 288 288 289 288 288 287 286 286 287 287 287 287 286 285 283 281 278 275 273 272 271 271
174 174 176 177 178 179 180 180 179 179 181 184 187 192 198 205 212 216 220 224 230 239 248 252 254 253 249 243 238 233 233 238 243 248 253 257 259 260 261 262 263 264 265 267 268 269 270 272 275 278 282 284 286 288 289 290 290 289 287 286 287 290 293 296 297 297 297 297 297 296 296 296 296 296 295 294 292 289 287 284 280 278 277 276 276
188 178 176 178 179 181 183 185 187 189 193 196 201 211 220 226 228 230 231 233 237 243 250 257 262 265 266 265 263 259 257 255 255 257 259 260 262 263 263 264 266 267 268 269 271 274 276 279 283 286 288 290 290 291 292 292 293 293 293 295 299 303 308 310 309 307 307 306 305 304 303 303 301 300 299 298 296 295 293 290 287 286 285 285 285
203 194 186 182 179 180 184 191 198 205 212 221 231 237 240 242 242 243 245 246 248 251 254 257 261 265 267 269 269 269 269 269 268 267 265 264 265 266 267 268 269 270 271 272 274 277 280 283 287 289 289 289 289 290 292 295 298 300 301 303 305 308 310 310 308 307 307 306 304 304 303 302 300 299 299 298 296 296 295 293 292 291 290 291 291
209 205 199 194 190 189 200 224 242 252 256 258 257 255 255 255 254 254 255 254 254 254 255 257 259 261 263 264 266 267 268 269 268 267 264 263 262 263 265 268 270 272 275 278 282 286 287 288 288 287 285 286 288 292 295 298 301 303 304 305 306 306 306 306 306 307 307 305 304 304 303 302 301 301 300 299 298 296 295 294 294 293 294 297 299
241 255 292 313 311 306 293 277 267 262 258 255 253 252 251 251 252 252 252 253 253 253 253 253 255 256 258 259 260 262 263 263 262 260 259 257 257 258 261 264 267 272 278 282 284 285 286 287 286 284 285 289 292 295 298 299 302 304 307 308 308 307 307 307 309 311 311 308 307 307 305 304 304 304 304 303 301 300 300 300 300 301 304 305 304
326 331 334 327 311 293 279 270 265 262 258 253 248 246 245 245 247 248 248 248 249 249 250 251 252 252 254 255 255 256 255 254 254 254 253 253 254 257 261 263 267 273 280 282 280 278 279 282 285 288 293 298 301 302 304 305 307 308 308 308 308 308 308 309 310 312 311 309 308 307 305 305 305 306 307 307 306 305 305 306 306 305 304 302 299
324 326 326 316 298 279 265 259 256 255 254 249 242 239 240 239 239 240 242 243 244 245 245 245 245 245 245 246 246 244 244 245 247 249 252 255 257 259 261 264 267 272 277 274 271 275 282 289 294 299 302 304 306 307 308 308 308 308 308 307 308 309 309 310 310 311 310 310 309 307 306 306 306 306 306 306 305 303 301 299 297 293 292 294 295
302 300 297 287 273 262 257 255 250 242 240 240 236 234 235 236 235 236 237 238 239 240 239 236 235 233 232 233 235 236 239 242 246 249 252 252 255 258 262 266 269 272 264 255 266 282 294 299 301 304 304 305 306 306 307 307 308 308 309 310 310 311 312 311 311 311 311 311 310 309 307 305 304 304 304 303 302 300 296 293 290 287 287 289 291
277 275 274 268 262 260 260 261 260 253 245 242 242 238 235 235 234 236 238 237 234 232 230 227 223 222 223 227 231 234 236 239 242 244 247 249 254 262 266 269 277 284 279 279 287 295 298 298 300 303 304 306 308 309 311 312 313 314 315 316 317 317 317 316 315 314 313 313 313 313 312 309 307 305 303 301 300 298 295 293 293 292 292 292 293
262 261 258 247 249 262 265 263 263 263 256 250 250 248 242 237 232 227 226 228 229 226 223 221 220 221 223 227 231 231 232 234 236 240 247 248 243 245 253 272 292 295 291 294 299 302 304 308 311 314 316 317 319 320 320 321 321 321 322 322 322 322 321 318 316 315 314 314 315 317 317 316 315 314 312 310 308 307 307 307 305 303 301 301 301
264 265 265 255 239 250 263 266 266 263 258 250 247 245 242 240 237 231 225 226 230 231 227 223 224 224 224 227 228 225 222 224 227 232 240 238 227 220 228 262 295 300 304 310 317 322 326 329 330 330 329 329 328 327 327 326 325 325 325 325 325 324 322 319 316 313 312 312 313 314 316 317 319 320 321 319 316 315 313 310 305 301 301 302 303
275 273 274 274 266 257 264 271 273 271 269 263 253 246 242 240 243 247 245 242 242 243 238 230 228 226 224 222 217 210 210 215 215 215 221 223 217 203 207 282 331 340 342 341 341 342 342 341 340 340 339 337 334 332 331 330 330 329 329 328 327 326 325 322 318 314 312 311 311 312 314 315 319 322 323 322 321 318 311 304 300 300 300 302 303
288 284 279 278 281 275 268 271 274 274 273 270 263 257 252 247 247 251 253 254 254 251 240 236 235 231 225 219 211 207 213 215 210 205 203 195 173 144 91 43 32 24 15 5 358 354 351 349 348 347 346 344 342 340 338 336 335 334 333 331 329 327 325 323 320 316 313 311 311 313 314 315 318 320 321 321 321 319 315 308 305 304 305 308 310
307 308 293 282 279 275 266 267 270 271 270 266 259 256 252 247 247 250 252 254 254 245 230 227 229 227 223 215 204 202 208 207 198 190 179 161 143 126 98 70 49 34 24 16 10 5 1 358 356 354 353 352 350 347 345 342 340 338 337 335 333 330 327 324 322 319 314 310 309 311 312 314 317 319 320 318 317 318 320 318 312 311 313 316 317
325 323 302 284 274 271 271 267 264 264 263 257 251 250 244 235 237 243 248 248 246 239 228 219 217 220 220 211 201 201 201 193 180 169 158 147 137 124 109 90 65 42 29 21 16 13 10 7 5 3 1 359 356 354 351 348 345 343 342 341 341 339 335 332 330 326 320 314 310 308 311 315 317 319 320 320 320 322 325 323 317 316 318 322 322
329 324 307 292 282 276 278 274 268 264 265 260 252 246 241 231 226 232 237 237 233 232 226 215 211 215 218 216 212 204 191 180 171 161 152 146 140 132 120 100 68 44 31 23 18 16 14 13 12 11 8 5 1 358 356 353 350 349 348 349 349 349 346 342 338 335 330 326 320 317 318 319 317 317 319 320 321 324 326 324 321 321 323 325 325
330 329 314 301 295 294 281 278 284 287 287 281 269 254 248 243 235 233 235 232 225 220 218 214 215 219 221 222 216 199 183 176 170 161 155 152 149 141 126 101 65 37 27 24 21 18 17 17 16 16 15 11 7 3 359 355 352 352 353 355 357 357 355 351 347 342 339 336 333 332 331 325 319 319 321 321 321 323 326 327 327 326 326 326 327
330 338 331 316 313 318 325 317 320 331 331 310 294 280 271 267 260 248 244 240 230 218 213 216 221 225 226 222 206 187 181 177 170 163 161 159 154 148 137 99 52 32 25 23 21 20 20 19 18 18 18 16 13 9 4 359 355 353 355 358 1 2 2 0 356 351 348 345 343 344 344 337 330 329 329 326 325 328 330 331 332 332 330 328 329
324 332 337 329 311 303 302 302 308 323 342 335 307 289 280 276 270 259 250 245 237 223 217 220 224 227 228 219 195 181 179 178 171 166 164 165 165 164 159 85 34 30 29 27 24 23 21 19 18 18 18 17 15 13 10 5 0 356 355 356 360 4 6 6 4 1 359 357 355 356 358 355 350 347 343 338 335 335 335 336 337 336 333 331 333
310 317 323 330 316 302 305 307 299 300 313 325 309 284 267 260 258 252 243 239 233 220 215 218 222 224 222 209 189 181 181 178 172 170 172 177 183 188 181 131 33 32 32 30 27 25 21 19 17 16 16 16 15 13 11 9 6 2 358 355 355 358 1 4 5 6 6 4 3 3 4 4 3 1 355 349 346 343 342 343 343 338 335 336 339
299 306 311 321 337 326 310 303 297 297 302 307 306 295 270 243 251 250 238 226 221 216 215 217 219 219 211 198 188 186 184 178 175 180 188 191 194 200 200 189 112 54 43 33 28 25 20 16 15 14 14 14 13 12 10 9 7 4 2 359 355 353 354 355 357 359 0 1 1 1 0 1 2 1 358 356 353 349 345 344 343 340 340 342 342
287 292 297 306 317 310 282 277 279 285 293 301 305 303 302 306 292 268 244 218 215 225 228 224 219 211 201 191 188 190 187 180 180 191 199 200 201 204 201 190 150 70 52 36 28 24 18 13 12 12 12 12 11 10 9 8 6 4 3 1 359 356 353 350 348 349 349 350 352 353 352 352 352 353 352 351 350 347 343 340 338 336 337 338 337
273 276 283 290 292 277 271 281 287 284 286 295 304 305 303 302 292 271 246 219 216 240 244 235 221 206 192 186 186 189 189 185 187 196 204 205 206 206 200 188 169 95 48 32 23 18 14 10 9 9 9 9 9 8 8 7 6 5 3 2 360 358 356 354 351 349 347 347 348 349 348 348 348 349 348 346 344 342 339 337 334 332 331 332 334
268 270 273 276 270 257 259 273 278 267 268 275 282 285 288 292 292 275 244 223 218 230 242 239 220 196 184 182 184 188 191 192 191 197 206 210 209 209 208 203 191 157 47 26 17 12 9 9 8 7 6 5 6 6 6 6 5 5 4 3 1 359 357 357 356 354 353 352 353 353 353 353 353 352 349 346 344 341 339 338 336 333 331 332 336
Height
3107 3109 3111 3112 3115 3118 3118 3119 3120 3120 3120 3122 3123 3126 3128 3131 3133 3135 3137 3138 3139 3140 3141 3142 3143 3144 3144 3145 3146 3147 3148 3148 3149 3149 3150 3151 3151 3152 3153 3154 3154 3155 3155 3156 3156 3156 3157 3157 3158 3159 3161 3161 3162 3163 3164 3164 3165 3166 3167 3167 3167 3167 3168 3168 3168 3168 3170 3171 3171 3171 3172 3172 3172 3172 3172 3172 3172 3172 3172 3172 3172 3172 3172 3173 3173
3105 3107 3107 3108 3112 3115 3116 3117 3118 3118 3119 3121 3122 3125 3127 3130 3133 3135 3136 3138 3138 3140 3141 3142 3142 3143 3144 3145 3145 3146 3147 3147 3148 3149 3149 3150 3150 3151 3152 3153 3153 3154 3155 3155 3155 3156 3156 3157 3157 3158 3159 3160 3161 3162 3163 3164 3164 3165 3166 3166 3166 3166 3167 3168 3168 3168 3168 3169 3170 3171 3171 3171 3171 3170 3171 3171 3171 3171 3171 3171 3171 3171 3171 3172 3172
3104 3105 3106 3106 3108 3110 3112 3115 3116 3116 3118 3120 3121 3123 3125 3129 3132 3134 3136 3137 3138 3139 3140 3141 3142 3142 3143 3144 3145 3146 3146 3146 3147 3148 3148 3149 3150 3150 3151 3151 3152 3153 3154 3154 3155 3155 3156 3156 3157 3157 3158 3159 3160 3161 3162 3163 3163 3164 3165 3165 3165 3165 3166 3167 3168 3168 3168 3168 3169 3169 3170 3171 3170 3170 3170 3171 3170 3170 3170 3170 3170 3170 3171 3171 3171
3101 3104 3105 3107 3107 3107 3110 3113 3114 3114 3115 3117 3119 3122 3125 3129 3132 3133 3135 3136 3138 3139 3139 3140 3141 3142 3143 3144 3144 3145 3145 3146 3146 3147 3147 3148 3149 3149 3150 3150 3151 3152 3153 3154 3154 3155 3155 3155 3156 3157 3157 3158 3160 3160 3161 3161 3162 3162 3163 3165 3165 3165 3166 3167 3167 3167 3167 3167 3167 3168 3169 3170 3170 3170 3170 3170 3170 3169 3169 3169 3169 3170 3170 3170 3170
3099 3101 3102 3105 3107 3108 3109 3111 3112 3112 3113 3115 3119 3122 3125 3128 3130 3132 3134 3135 3137 3138 3138 3139 3140 3141 3142 3143 3144 3144 3144 3145 3146 3146 3147 3148 3148 3148 3149 3150 3150 3152 3152 3153 3154 3154 3155 3155 3155 3156 3157 3158 3159 3160 3160 3160 3160 3161 3162 3163 3164 3165 3165 3166 3166 3166 3166 3166 3166 3167 3167 3167 3169 3169 3168 3169 3169 3169 3169 3169 3168 3168 3169 3169 3169
3097 3098 3100 3103 3105 3106 3107 3109 3110 3111 3113 3115 3118 3121 3124 3127 3129 3131 3133 3134 3136 3137 3138 3139 3139 3140 3141 3142 3143 3144 3144 3145 3145 3146 3146 3147 3147 3148 3148 3149 3150 3151 3151 3152 3153 3154 3154 3155 3155 3156 3157 3158 3158 3159 3159 3160 3160 3161 3162 3163 3164 3164 3164 3164 3165 3165 3166 3165 3165 3166 3166 3165 3166 3167 3167 3166 3167 3167 3167 3167 3167 3167 3167 3167 3168
3094 3096 3098 3100 3101 3102 3104 3106 3108 3110 3112 3114 3117 3120 3123 3125 3128 3130 3132 3133 3135 3136 3137 3138 3138 3139 3140 3142 3143 3143 3144 3144 3145 3145 3146 3146 3147 3148 3148 3148 3149 3150 3150 3151 3152 3153 3153 3154 3155 3156 3157 3158 3158 3158 3159 3160 3161 3161 3162 3163 3163 3163 3163 3164 3164 3164 3165 3165 3165 3165 3165 3165 3164 3164 3164 3164 3164 3165 3165 3165 3165 3165 3165 3165 3166
3093 3094 3094 3096 3098 3099 3100 3103 3106 3108 3110 3113 3116 3119 3121 3124 3127 3129 3130 3132 3133 3135 3136 3136 3137 3138 3140 3142 3142 3143 3143 3144 3145 3145 3146 3146 3147 3147 3148 3148 3148 3149 3149 3150 3151 3152 3153 3154 3155 3156 3157 3158 3158 3159 3160 3161 3161 3162 3163 3163 3164 3164 3164 3164 3164 3163 3163 3164 3164 3164 3164 3164 3163 3162 3162 3162 3162 3162 3162 3162 3163 3163 3163 3163 3163
3090 3091 3091 3092 3095 3096 3099 3102 3104 3106 3108 3111 3114 3117 3120 3123 3125 3127 3129 3130 3131 3133 3134 3134 3136 3138 3140 3142 3142 3142 3143 3144 3144 3145 3145 3146 3147 3147 3147 3147 3148 3148 3149 3149 3150 3151 3153 3154 3155 3156 3157 3157 3158 3159 3159 3160 3160 3161 3162 3162 3163 3163 3164 3164 3164 3163 3163 3163 3163 3162 3162 3163 3162 3161 3160 3160 3161 3160 3159 3159 3160 3161 3160 3160 3160
3087 3087 3088 3089 3091 3093 3097 3100 3103 3105 3106 3109 3112 3115 3118 3121 3123 3125 3126 3127 3129 3130 3131 3133 3135 3137 3139 3140 3141 3142 3142 3143 3144 3144 3145 3146 3146 3147 3147 3147 3147 3148 3148 3149 3150 3151 3152 3153 3154 3155 3155 3156 3157 3158 3158 3159 3159 3160 3160 3160 3161 3162 3162 3162 3162 3162 3162 3162 3162 3161 3161 3161 3160 3160 3159 3158 3158 3158 3158 3157 3157 3158 3157 3157 3157
3084 3085 3085 3087 3089 3091 3094 3098 3101 3103 3105 3108 3110 3113 3115 3118 3120 3121 3123 3124 3127 3129 3130 3132 3134 3136 3137 3138 3140 3141 3141 3142 3143 3144 3144 3145 3146 3146 3147 3147 3147 3147 3147 3148 3148 3149 3150 3151 3152 3152 3153 3154 3155 3156 3157 3157 3158 3158 3158 3159 3160 3160 3160 3160 3160 3160 3160 3160 3160 3159 3159 3159 3159 3158 3158 3157 3156 3156 3156 3155 3155 3155 3154 3153 3153
3083 3084 3085 3085 3087 3090 3093 3096 3099 3101 3104 3106 3109 3111 3113 3115 3117 3118 3121 3123 3126 3128 3129 3131 3133 3135 3136 3137 3138 3139 3140 3141 3142 3143 3143 3144 3145 3146 3146 3146 3146 3146 3146 3146 3147 3148 3149 3149 3150 3151 3152 3153 3153 3154 3155 3156 3156 3156 3156 3157 3158 3158 3158 3158 3158 3158 3157 3157 3157 3156 3156 3156 3156 3156 3156 3156 3155 3154 3154 3153 3152 3152 3151 3150 3150
3083 3084 3085 3086 3087 3090 3093 3096 3098 3100 3102 3104 3107 3110 3112 3113 3115 3117 3120 3123 3125 3126 3128 3129 3131 3133 3134 3135 3137 3137 3138 3139 3140 3141 3142 3143 3144 3144 3144 3145 3145 3145 3146 3146 3147 3148 3148 3149 3150 3151 3151 3151 3152 3152 3153 3154 3154 3154 3154 3155 3155 3155 3156 3156 3156 3156 3155 3155 3155 3154 3153 3153 3153 3153 3153 3152 3152 3152 3151 3150 3149 3149 3148 3147 3147
3084 3084 3085 3086 3088 3090 3093 3095 3097 3099 3101 3103 3105 3108 3110 3112 3114 3116 3118 3120 3122 3124 3126 3128 3129 3131 3132 3134 3135 3136 3137 3138 3139 3140 3140 3141 3142 3142 3142 3142 3143 3144 3145 3146 3146 3147 3147 3148 3149 3149 3150 3150 3150 3151 3151 3151 3151 3152 3152 3153 3153 3153 3153 3153 3153 3153 3153 3153 3152 3152 3151 3150 3150 3150 3149 3148 3148 3147 3146 3145 3145 3145 3145 3144 3143
3084 3084 3085 3086 3088 3090 3092 3094 3096 3099 3101 3102 3104 3106 3109 3111 3113 3115 3116 3118 3120 3122 3124 3126 3127 3129 3130 3132 3133 3134 3135 3136 3137 3138 3138 3139 3140 3140 3140 3140 3141 3143 3143 3144 3144 3145 3145 3146 3147 3147 3147 3147 3148 3148 3148 3148 3148 3149 3150 3151 3151 3151 3151 3151 3151 3150 3150 3150 3150 3149 3149 3148 3147 3146 3146 3145 3144 3142 3141 3141 3141 3142 3141 3139 3138
3084 3084 3085 3086 3087 3089 3091 3093 3095 3097 3100 3101 3102 3104 3107 3109 3111 3113 3115 3117 3118 3120 3122 3124 3126 3127 3128 3130 3131 3132 3133 3134 3135 3136 3137 3137 3138 3139 3139 3139 3139 3140 3142 3142 3142 3143 3143 3144 3144 3145 3145 3145 3145 3146 3146 3146 3146 3146 3148 3148 3149 3149 3149 3148 3147 3147 3147 3146 3146 3146 3145 3145 3144 3143 3142 3141 3140 3138 3137 3137 3137 3137 3136 3135 3134
3086 3086 3086 3087 3088 3088 3090 3093 3095 3096 3098 3100 3101 3102 3104 3108 3109 3111 3113 3115 3117 3119 3120 3122 3124 3125 3126 3127 3128 3130 3131 3132 3133 3135 3135 3136 3137 3137 3138 3138 3138 3139 3140 3140 3141 3141 3142 3142 3142 3142 3143 3143 3143 3143 3143 3143 3143 3143 3144 3145 3146 3146 3145 3145 3144 3143 3143 3142 3142 3141 3141 3141 3140 3139 3138 3138 3136 3134 3133 3132 3132 3132 3131 3130 3130
3086 3087 3088 3088 3089 3089 3090 3092 3093 3095 3096 3098 3100 3101 3103 3106 3107 3109 3111 3113 3115 3116 3118 3119 3121 3123 3124 3125 3126 3127 3128 3129 3131 3132 3133 3134 3134 3135 3135 3136 3136 3137 3137 3137 3138 3138 3139 3139 3139 3140 3140 3140 3140 3140 3140 3140 3140 3140 3141 3141 3141 3141 3141 3141 3140 3139 3138 3138 3137 3137 3136 3136 3135 3134 3134 3133 3132 3131 3129 3128 3127 3126 3126 3125 3125
3086 3087 3088 3088 3089 3090 3091 3092 3093 3094 3095 3096 3098 3099 3101 3104 3106 3107 3109 3111 3113 3114 3116 3117 3118 3119 3120 3121 3122 3123 3124 3126 3127 3129 3130 3131 3132 3132 3132 3133 3133 3134 3134 3134 3134 3135 3135 3136 3137 3137 3137 3137 3137 3137 3137 3137 3137 3137 3136 3136 3136 3136 3136 3136 3135 3134 3133 3133 3132 3132 3132 3131 3130 3129 3129 3128 3128 3127 3126 3124 3123 3122 3122 3121 3120
3086 3086 3087 3087 3088 3089 3090 3091 3093 3094 3094 3096 3097 3099 3101 3103 3105 3106 3108 3110 3111 3112 3113 3114 3115 3115 3116 3117 3118 3120 3121 3122 3124 3125 3127 3128 3129 3129 3129 3129 3130 3130 3131 3131 3131 3132 3132 3133 3134 3134 3134 3134 3134 3134 3134 3133 3133 3132 3131 3131 3131 3130 3130 3130 3130 3130 3130 3129 3128 3128 3127 3127 3126 3125 3124 3123 3123 3122 3121 3120 3119 3119 3118 3116 3115
3086 3086 3087 3087 3087 3088 3089 3091 3092 3093 3094 3095 3098 3099 3101 3102 3104 3106 3107 3109 3110 3111 3111 3112 3113 3114 3114 3115 3117 3118 3119 3120 3122 3123 3124 3125 3126 3126 3126 3126 3126 3127 3128 3128 3128 3129 3129 3130 3130 3130 3130 3130 3130 3130 3130 3129 3128 3128 3127 3127 3126 3126 3126 3126 3126 3126 3125 3125 3125 3124 3123 3122 3121 3120 3119 3118 3117 3117 3116 3115 3115 3114 3113 3112 3111
3087 3087 3087 3087 3088 3089 3090 3091 3092 3093 3094 3096 3097 3099 3100 3102 3104 3105 3106 3108 3109 3109 3110 3111 3112 3113 3114 3115 3116 3117 3118 3119 3120 3121 3122 3123 3123 3124 3124 3123 3123 3124 3125 3126 3126 3126 3127 3127 3126 3126 3126 3126 3126 3126 3126 3125 3125 3124 3123 3123 3123 3122 3122 3121 3121 3120 3119 3119 3119 3119 3119 3118 3116 3115 3114 3113 3112 3112 3111 3110 3110 3110 3109 3108 3106
3088 3089 3089 3089 3090 3091 3092 3093 3094 3095 3096 3097 3098 3098 3099 3100 3102 3103 3105 3106 3108 3108 3110 3111 3112 3113 3114 3115 3116 3117 3118 3119 3119 3120 3120 3121 3121 3121 3121 3121 3121 3122 3123 3123 3124 3124 3124 3123 3123 3123 3123 3123 3123 3122 3122 3121 3120 3120 3119 3119 3119 3118 3117 3116 3116 3115 3115 3115 3114 3114 3113 3112 3112 3111 3110 3109 3108 3107 3106 3104 3104 3103 3103 3102 3101
3088 3089 3089 3090 3091 3092 3093 3094 3095 3096 3097 3098 3099 3099 3099 3099 3100 3102 3103 3105 3106 3108 3109 3110 3111 3112 3113 3114 3116 3116 3117 3117 3118 3118 3119 3119 3119 3119 3119 3119 3119 3120 3120 3120 3120 3120 3120 3120 3120 3120 3120 3120 3119 3118 3117 3117 3116 3116 3116 3115 3114 3113 3112 3112 3112 3111 3111 3110 3109 3108 3107 3106 3105 3105 3104 3103 3102 3101 3100 3099 3098 3097 3096 3096 3095
3088 3088 3089 3090 3091 3092 3093 3094 3094 3096 3097 3098 3099 3100 3100 3101 3102 3103 3104 3105 3106 3107 3109 3110 3111 3112 3113 3115 3116 3116 3116 3116 3116 3116 3116 3117 3117 3117 3117 3117 3117 3117 3117 3117 3117 3117 3117 3117 3116 3116 3116 3115 3114 3114 3113 3113 3113 3112 3112 3111 3109 3108 3108 3108 3107 3106 3105 3105 3103 3102 3101 3100 3099 3098 3097 3096 3095 3094 3093 3093 3092 3091 3090 3089 3088
3087 3088 3089 3090 3091 3091 3092 3093 3094 3095 3096 3097 3098 3099 3100 3101 3102 3103 3104 3105 3106 3107 3108 3110 3111 3112 3113 3114 3115 3115 3114 3114 3114 3114 3114 3114 3114 3115 3115 3115 3115 3115 3114 3114 3114 3113 3113 3113 3112 3111 3111 3110 3110 3110 3110 3110 3109 3108 3107 3106 3105 3104 3103 3103 3102 3101 3100 3099 3098 3097 3096 3095 3094 3093 3091 3090 3089 3088 3087 3087 3086 3085 3084 3083 3082
3085 3087 3088 3089 3090 3091 3092 3092 3094 3095 3096 3097 3098 3099 3100 3101 3102 3103 3104 3105 3105 3106 3106 3108 3109 3110 3111 3112 3113 3113 3112 3111 3111 3111 3111 3112 3112 3112 3112 3112 3111 3111 3111 3110 3110 3110 3109 3108 3108 3107 3107 3107 3107 3107 3106 3106 3105 3105 3104 3102 3101 3100 3099 3099 3098 3097 3096 3095 3094 3092 3091 3090 3089 3088 3087 3085 3084 3083 3082 3081 3080 3079 3078 3077 3076
3085 3085 3086 3088 3089 3090 3091 3092 3093 3094 3095 3096 3097 3098 3099 3101 3102 3103 3103 3104 3104 3104 3104 3105 3106 3106 3108 3109 3110 3110 3110 3110 3109 3109 3110 3110 3110 3109 3109 3108 3108 3107 3107 3106 3106 3106 3105 3105 3105 3105 3105 3105 3104 3103 3103 3102 3101 3100 3099 3098 3097 3097 3096 3095 3094 3093 3091 3090 3089 3088 3087 3086 3084 3083 3082 3081 3080 3079 3078 3076 3075 3073 3072 3072 3071
3086 3086 3086 3087 3088 3089 3090 3091 3092 3093 3094 3095 3096 3097 3098 3099 3100 3101 3102 3102 3103 3103 3103 3103 3103 3103 3104 3105 3105 3106 3106 3107 3107 3107 3107 3107 3106 3106 3105 3105 3104 3104 3104 3103 3103 3103 3103 3103 3103 3103 3103 3102 3101 3100 3099 3098 3097 3096 3095 3094 3094 3093 3093 3092 3090 3089 3088 3087 3085 3084 3083 3082 3081 3079 3078 3077 3075 3074 3073 3071 3070 3069 3067 3067 3066
3086 3086 3086 3086 3087 3088 3089 3090 3091 3092 3093 3094 3095 3095 3096 3097 3098 3099 3099 3100 3100 3101 3101 3101 3101 3101 3101 3101 3102 3102 3102 3103 3103 3103 3103 3103 3102 3102 3102 3101 3101 3101 3101 3101 3101 3101 3101 3101 3101 3100 3100 3099 3098 3097 3096 3095 3094 3093 3092 3092 3091 3091 3090 3089 3087 3086 3085 3084 3083 3081 3080 3079 3077 3076 3075 3073 3072 3070 3069 3067 3066 3064 3064 3063 3061
3084 3085 3085 3085 3085 3086 3087 3088 3089 3090 3091 3092 3093 3094 3094 3095 3096 3096 3097 3097 3098 3098 3098 3098 3098 3098 3098 3099 3099 3099 3099 3099 3100 3100 3100 3100 3099 3099 3099 3099 3099 3098 3098 3099 3099 3099 3099 3099 3098 3098 3097 3096 3095 3095 3094 3093 3092 3091 3090 3089 3089 3088 3087 3086 3085 3084 3082 3081 3079 3078 3077 3075 3074 3073 3071 3070 3068 3067 3065 3064 3063 3061 3061 3060 3058
3082 3083 3083 3084 3085 3085 3086 3087 3088 3089 3090 3091 3092 3092 3093 3093 3093 3094 3094 3095 3095 3095 3095 3096 3096 3096 3096 3096 3096 3096 3096 3096 3096 3096 3097 3097 3097 3097 3097 3097 3097 3097 3097 3098 3098 3097 3096 3096 3095 3095 3094 3094 3093 3093 3092 3091 3090 3089 3088 3087 3086 3084 3083 3082 3082 3081 3079 3078 3076 3075 3073 3072 3071 3069 3068 3066 3065 3064 3062 3061 3060 3059 3058 3057 3056
3082 3082 3083 3084 3084 3085 3085 3086 3087 3088 3089 3090 3090 3090 3090 3091 3091 3091 3092 3092 3092 3092 3093 3093 3093 3093 3093 3093 3093 3094 3094 3094 3094 3094 3094 3095 3095 3095 3095 3095 3096 3096 3096 3096 3095 3095 3094 3094 3093 3093 3092 3092 3091 3091 3090 3089 3088 3087 3085 3084 3082 3081 3080 3079 3078 3077 3076 3074 3073 3072 3070 3069 3068 3066 3065 3063 3062 3061 3060 3058 3058 3057 3056 3055 3054
3081 3081 3082 3083 3084 3084 3084 3084 3085 3086 3087 3087 3088 3088 3088 3088 3089 3089 3089 3089 3089 3090 3090 3090 3090 3091 3091 3091 3091 3091 3091 3091 3092 3092 3093 3093 3093 3093 3093 3094 3094 3094 3094 3093 3093 3092 3092 3092 3092 3091 3091 3090 3089 3088 3087 3086 3085 3084 3083 3081 3080 3078 3077 3076 3075 3074 3072 3071 3070 3069 3067 3066 3065 3063 3062 3061 3060 3059 3057 3056 3056 3055 3054 3053 3052
3080 3080 3081 3082 3082 3082 3082 3083 3083 3084 3084 3084 3085 3085 3086 3086 3086 3086 3086 3087 3087 3087 3088 3088 3088 3088 3089 3089 3089 3089 3089 3090 3090 3091 3091 3091 3091 3091 3091 3092 3092 3092 3092 3092 3091 3091 3091 3091 3090 3089 3089 3088 3087 3086 3085 3084 3083 3081 3080 3078 3077 3076 3075 3073 3072 3071 3069 3068 3067 3066 3065 3063 3062 3061 3060 3059 3058 3057 3056 3055 3054 3053 3052 3051 3050
3079 3080 3080 3081 3081 3081 3081 3081 3081 3081 3082 3082 3082 3083 3083 3084 3084 3084 3085 3085 3085 3085 3085 3086 3086 3087 3087 3087 3087 3087 3088 3089 3089 3089 3089 3089 3089 3089 3089 3090 3090 3090 3090 3090 3090 3090 3090 3089 3089 3088 3087 3086 3085 3084 3083 3081 3080 3078 3077 3076 3074 3073 3072 3070 3069 3068 3067 3066 3064 3063 3062 3061 3060 3059 3058 3056 3055 3054 3053 3052 3051 3050 3050 3049 3048
3078 3078 3079 3080 3080 3079 3079 3079 3079 3079 3080 3080 3080 3081 3081 3082 3082 3082 3082 3082 3082 3083 3084 3085 3085 3086 3086 3086 3086 3087 3087 3088 3087 3087 3087 3088 3088 3088 3088 3088 3089 3089 3089 3089 3089 3089 3088 3087 3087 3086 3084 3083 3082 3081 3080 3078 3077 3076 3074 3073 3071 3070 3069 3068 3067 3065 3064 3063 3062 3061 3059 3058 3057 3056 3055 3054 3053 3052 3051 3050 3049 3048 3047 3046 3046
3077 3077 3077 3079 3079 3079 3078 3078 3078 3078 3078 3079 3079 3079 3079 3079 3079 3079 3080 3080 3080 3081 3083 3084 3084 3084 3084 3084 3085 3086 3086 3086 3086 3086 3086 3086 3087 3087 3087 3088 3088 3088 3088 3087 3087 3086 3086 3085 3084 3083 3082 3081 3080 3079 3077 3076 3075 3073 3072 3071 3069 3068 3067 3066 3065 3063 3062 3061 3060 3058 3057 3056 3055 3054 3052 3051 3050 3050 3049 3048 3047 3046 3045 3044 3044
3076 3076 3076 3077 3078 3078 3077 3077 3077 3077 3077 3077 3078 3078 3078 3077 3077 3077 3078 3078 3079 3080 3082 3082 3082 3082 3082 3083 3084 3084 3084 3084 3085 3085 3085 3085 3086 3086 3086 3087 3087 3086 3086 3085 3085 3084 3084 3083 3082 3081 3080 3079 3078 3077 3075 3074 3073 3071 3070 3069 3067 3066 3065 3064 3063 3062 3060 3059 3058 3057 3056 3054 3053 3052 3051 3050 3049 3048 3047 3046 3045 3044 3043 3042 3041
3075 3075 3075 3075 3076 3076 3076 3076 3075 3075 3075 3076 3076 3076 3076 3076 3076 3076 3076 3076 3077 3079 3080 3080 3080 3080 3081 3081 3082 3083 3083 3083 3084 3084 3084 3084 3085 3085 3085 3085 3085 3085 3085 3084 3084 3083 3083 3082 3081 3080 3079 3078 3077 3075 3074 3073 3071 3070 3069 3067 3066 3065 3063 3062 3061 3060 3058 3057 3056 3055 3054 3053 3052 3051 3049 3048 3047 3046 3046 3044 3043 3041 3040 3039 3038
3075 3075 3074 3074 3075 3075 3075 3075 3074 3074 3074 3074 3074 3074 3075 3075 3075 3074 3074 3075 3076 3078 3078 3079 3079 3079 3080 3080 3081 3082 3082 3082 3083 3083 3083 3084 3084 3084 3084 3084 3084 3084 3084 3084 3083 3083 3082 3081 3080 3079 3078 3077 3075 3074 3073 3071 3070 3069 3067 3066 3065 3063 3062 3060 3059 3058 3056 3055 3055 3053 3052 3051 3050 3049 3048 3047 3045 3045 3044 3043 3041 3040 3038 3037 3036
3074 3074 3074 3074 3074 3075 3074 3074 3074 3073 3073 3073 3073 3073 3074 3074 3074 3074 3074 3074 3075 3076 3077 3077 3078 3078 3079 3079 3080 3081 3081 3081 3082 3082 3083 3083 3083 3084 3084 3084 3084 3084 3084 3083 3083 3082 3081 3081 3080 3078 3077 3076 3074 3073 3072 3070 3069 3068 3066 3065 3064 3062 3060 3059 3057 3056 3055 3054 3053 3052 3051 3050 3049 3048 3047 3045 3044 3043 3042 3041 3040 3038 3037 3036 3034
3074 3074 3073 3073 3073 3074 3074 3073 3073 3073 3073 3073 3073 3072 3072 3073 3073 3073 3073 3074 3075 3075 3075 3076 3076 3077 3077 3078 3079 3079 3080 3081 3081 3082 3082 3083 3083 3084 3084 3084 3084 3084 3083 3083 3082 3081 3081 3080 3079 3078 3076 3075 3074 3072 3071 3070 3069 3067 3066 3064 3062 3061 3059 3057 3056 3054 3053 3052 3051 3051 3050 3048 3047 3046 3045 3044 3043 3042 3041 3040 3038 3037 3036 3035 3033
3074 3074 3073 3072 3072 3073 3073 3072 3072 3072 3072 3072 3072 3071 3071 3072 3072 3072 3072 3073 3073 3074 3074 3074 3075 3075 3076 3077 3078 3079 3080 3080 3081 3081 3082 3083 3083 3083 3083 3083 3083 3083 3082 3082 3081 3081 3080 3079 3078 3077 3076 3074 3073 3072 3070 3069 3068 3067 3065 3063 3062 3060 3058 3057 3055 3054 3052 3051 3050 3050 3049 3047 3046 3045 3044 3043 3042 3041 3040 3039 3037 3036 3035 3034 3033
3073 3073 3072 3072 3071 3072 3072 3072 3071 3071 3071 3071 3070 3070 3070 3070 3071 3071 3071 3071 3072 3073 3073 3074 3074 3074 3075 3076 3078 3078 3079 3080 3081 3081 3082 3082 3082 3082 3082 3082 3082 3082 3082 3081 3081 3080 3079 3078 3078 3077 3076 3074 3073 3071 3070 3069 3067 3066 3064 3063 3061 3059 3058 3056 3055 3053 3052 3051 3050 3049 3048 3047 3045 3044 3043 3042 3041 3040 3039 3037 3036 3035 3034 3033 3032
3073 3072 3072 3072 3071 3071 3071 3071 3071 3071 3071 3071 3070 3070 3070 3069 3070 3070 3070 3070 3071 3072 3072 3073 3073 3074 3075 3076 3077 3078 3078 3079 3080 3080 3081 3081 3081 3081 3081 3081 3081 3081 3081 3080 3080 3079 3079 3078 3077 3076 3075 3074 3073 3071 3070 3068 3067 3065 3064 3062 3061 3059 3058 3056 3055 3053 3052 3050 3049 3048 3047 3046 3045 3043 3042 3041 3040 3039 3038 3037 3035 3035 3034 3033 3031
3072 3072 3072 3072 3071 3071 3071 3071 3071 3070 3070 3071 3070 3070 3070 3069 3069 3069 3069 3070 3070 3071 3071 3072 3072 3073 3074 3075 3076 3077 3077 3078 3079 3079 3080 3080 3080 3080 3081 3081 3080 3080 3080 3080 3079 3079 3078 3077 3077 3076 3075 3074 3072 3071 3069 3068 3066 3065 3063 3062 3061 3059 3058 3056 3055 3053 3052 3050 3049 3048 3047 3046 3044 3043 3042 3041 3040 3038 3037 3036 3035 3034 3033 3032 3031
3071 3071 3071 3071 3071 3071 3070 3070 3070 3070 3070 3070 3069 3069 3069 3069 3069 3068 3068 3069 3069 3069 3070 3071 3071 3072 3073 3074 3075 3075 3076 3077 3078 3078 3079 3079 3079 3080 3080 3080 3080 3080 3079 3079 3079 3078 3078 3077 3076 3075 3074 3073 3072 3070 3069 3068 3066 3065 3063 3061 3060 3059 3057 3056 3054 3053 3052 3050 3049 3047 3046 3045 3044 3042 3041 3040 3039 3038 3037 3035 3034 3033 3032 3032 3031
3070 3070 3070 3070 3070 3070 3070 3070 3070 3070 3069 3069 3068 3068 3068 3068 3068 3068 3068 3068 3068 3068 3069 3069 3070 3070 3071 3072 3074 3075 3076 3076 3077 3077 3078 3078 3079 3079 3079 3079 3079 3079 3079 3078 3078 3077 3077 3076 3076 3075 3074 3073 3071 3070 3069 3067 3066 3064 3063 3061 3060 3058 3057 3055 3054 3053 3051 3050 3049 3047 3046 3044 3043 3042 3041 3040 3039 3038 3036 3035 3034 3033 3032 3031 3030
3069 3069 3069 3069 3069 3070 3069 3069 3069 3069 3069 3068 3068 3068 3067 3067 3068 3068 3067 3067 3067 3067 3068 3068 3068 3069 3070 3071 3072 3073 3074 3075 3076 3076 3077 3077 3078 3078 3078 3078 3078 3078 3077 3077 3077 3077 3076 3076 3075 3074 3073 3072 3071 3070 3068 3067 3066 3064 3063 3061 3059 3058 3056 3055 3053 3052 3051 3049 3048 3047 3045 3044 3043 3042 3040 3039 3038 3037 3036 3035 3034 3033 3031 3030 3029
3067 3067 3068 3068 3068 3068 3068 3068 3068 3068 3068 3068 3068 3067 3067 3067 3067 3067 3066 3066 3066 3066 3066 3066 3067 3068 3069 3070 3071 3072 3073 3074 3075 3075 3076 3076 3076 3077 3077 3077 3077 3077 3077 3076 3076 3076 3075 3075 3074 3073 3072 3071 3070 3069 3068 3067 3065 3064 3062 3061 3059 3058 3056 3055 3053 3052 3050 3049 3048 3046 3045 3044 3043 3041 3040 3039 3038 3037 3035 3034 3033 3032 3031 3029 3028